Weather History for KJCT - May, 2012

Change the Weather History Date:

Monday, May 7, 2012

  Actual Average Record
Temperature  
Mean Temperature 80 °F -  
Max Temperature 97 °F - 100 °F (1998)
Min Temperature 64 °F - 44 °F (1999)
Degree Days  
Heating Degree Days 0    
Month to date heating degree days  
Since 1 July heating degree days  
Cooling Degree Days 16    
Month to date cooling degree days  
Year to date cooling degree days  
Growing Degree Days 30 (Base 50)    
Moisture  
Dew Point 62 °F    
Average Humidity 62    
Maximum Humidity 96    
Minimum Humidity 17    
Precipitation  
Precipitation 0.08 in - 0.83 in (2007)
Month to date precipitation  
Year to date precipitation  
Sea Level Pressure  
Sea Level Pressure 29.80 in    
Wind  
Wind Speed 11 mph (East)    
Max Wind Speed 31 mph    
Max Gust Speed 60 mph    
Visibility 8 miles    
Events Rain    
T = Trace of Precipitation, MM = Missing Value Source: NWS Daily Summary

Daily Weather History Graph

Daily Weather History Graph

Search for Another Location

Airport or City:

Trip Planner

Search our weather history database for the weather conditions in past years. The results will help you decide how hot, cold, wet, or windy it might be!

Date:

Astronomy

May. 07, 2012 Rise Set
Actual Time 6:49 AM CDT 8:21 PM CDT
Civil Twilight 6:24 AM CDT 8:47 PM CDT
Nautical Twilight 5:53 AM CDT 9:18 PM CDT
Astronomical Twilight 5:20 AM CDT 9:51 PM CDT
Moon 10:29 PM CDT (5/7) 8:03 AM CDT (5/7)
Length of Visible Light 14h 23m
Length of Day
13h 31m
Waning Gibbous, 96% of the Moon is Illuminated
May 7
Waning Gibbous
May 12
Last Quarter
May 20
New
May 28
First Quarter
Jun 4
Full

Hourly Weather History & Observations

Time (CDT) Temp. Heat Index Dew Point Humidity Pressure Visibility Wind Dir Wind Speed Gust Speed Precip Events Conditions
12:51 AM 80.1 °F 82.1 °F 66.0 °F 62% 29.75 in 10.0 mi South 6.9 mph 17.3 mph N/A   Clear
1:51 AM 78.1 °F - 66.9 °F 68% 29.74 in 10.0 mi South 10.4 mph - N/A   Clear
2:51 AM 75.9 °F - 66.9 °F 74% 29.73 in 9.0 mi SSW 9.2 mph - N/A   Clear
3:43 AM 78.8 °F - 66.2 °F 65% 29.90 in 9.0 mi ENE 17.3 mph 28.8 mph N/A   Mostly Cloudy
3:51 AM 78.1 °F - 66.9 °F 68% 29.78 in 9.0 mi NE 12.7 mph 21.9 mph N/A   Mostly Cloudy
4:10 AM 75.2 °F - 66.2 °F 73% 29.91 in 9.0 mi NE 18.4 mph 23.0 mph N/A   Mostly Cloudy
4:51 AM 75.0 °F - 66.9 °F 76% 29.78 in 9.0 mi ENE 9.2 mph - N/A   Scattered Clouds
5:51 AM 73.0 °F - 66.9 °F 81% 29.78 in 8.0 mi NE 4.6 mph - N/A   Clear
6:00 AM - - - N/A% - - North - - N/A   Unknown
6:51 AM 71.1 °F - 66.9 °F 87% 29.78 in 7.0 mi ESE 4.6 mph - N/A   Clear
7:51 AM 73.9 °F - 68.0 °F 82% 29.79 in 6.0 mi SE 6.9 mph - N/A   Haze
8:51 AM 78.1 °F - 68.0 °F 71% 29.79 in 7.0 mi South 6.9 mph - N/A   Clear
9:51 AM 81.0 °F 83.8 °F 68.0 °F 65% 29.80 in 8.0 mi South 6.9 mph - N/A   Clear
10:51 AM 86.0 °F 88.8 °F 66.9 °F 53% 29.79 in 8.0 mi SW 6.9 mph - N/A   Clear
11:51 AM 90.0 °F 91.7 °F 64.9 °F 43% 29.79 in 10.0 mi Variable 4.6 mph - N/A   Clear
12:51 PM 91.9 °F 92.9 °F 63.0 °F 38% 29.77 in 10.0 mi SSE 5.8 mph - N/A   Clear
1:51 PM 95.0 °F 94.4 °F 59.0 °F 30% 29.70 in 10.0 mi Variable 6.9 mph 20.7 mph N/A   Partly Cloudy
2:51 PM 96.1 °F 94.5 °F 55.9 °F 26% 29.68 in 10.0 mi South 10.4 mph 23.0 mph N/A   Scattered Clouds
3:51 PM 96.1 °F 94.1 °F 55.0 °F 25% 29.65 in 10.0 mi South 12.7 mph - N/A   Clear
4:40 PM 84.2 °F 83.8 °F 59.0 °F 42% 29.83 in 2.5 mi North 31.1 mph 59.8 mph 0.00 in Rain Light Rain
4:49 PM 75.2 °F - 59.0 °F 57% 29.84 in 9.0 mi North 26.5 mph 42.6 mph 0.00 in   Partly Cloudy
4:51 PM 75.0 °F - 59.0 °F 57% 29.74 in 10.0 mi North 27.6 mph 42.6 mph 0.00 in   Partly Cloudy
4:58 PM 75.2 °F - 59.0 °F 57% 29.85 in 10.0 mi North 23.0 mph 40.3 mph N/A   Partly Cloudy
5:51 PM 70.0 °F - 59.0 °F 68% 29.77 in 10.0 mi NNE 26.5 mph 39.1 mph 0.00 in   Partly Cloudy
6:30 PM 66.2 °F - 59.0 °F 78% 29.93 in 1.8 mi NNE 23.0 mph 36.8 mph 0.00 in Rain Light Rain
6:42 PM 66.2 °F - 60.8 °F 83% 29.92 in 3.0 mi NE 25.3 mph 36.8 mph 0.05 in Rain Rain
6:51 PM 66.0 °F - - N/A% 29.84 in 6.0 mi NE 18.4 mph 33.4 mph 0.06 in Rain Light Rain
7:51 PM 66.9 °F - - N/A% 29.82 in 10.0 mi ENE 17.3 mph 29.9 mph 0.00 in   Partly Cloudy
8:51 PM 66.0 °F - 64.9 °F 96% 29.83 in 10.0 mi ENE 11.5 mph - 0.00 in   Clear
9:51 PM 66.0 °F - 59.0 °F 78% 29.81 in 10.0 mi ENE 3.5 mph - N/A   Scattered Clouds
10:51 PM 64.9 °F - 57.9 °F 78% 29.84 in 10.0 mi ENE 11.5 mph - N/A   Clear
11:51 PM 64.9 °F - 59.0 °F 81% 29.82 in 10.0 mi East 6.9 mph - N/A   Clear